User: anonymous   Login
Location: Hastringsfeld
(50.9620°N, 10.4787°E)
Time: 21:18:01
(UTC+00:00)
Language:

Cosmos 1500 Rocket - Orbit

View from above orbital plane
View from above orbital plane
View from above satellite
View from above satellite

Ground track
Ground track

The orbit data is extracted from the following two-line orbital elements,

1 14373U 83099B   24062.58470848  .00000552  00000-0  61954-4 0  9996
2 14373  82.5382 113.6108 0021182  60.2227 300.1092 14.84787209163185
Epoch (UTC): 02 March 2024 14:01:58
Eccentricity: 0.0021182
inclination: 82.5382°
perigee height: 599 km
apogee height: 629 km
right ascension of ascending node: 113.6108°
argument of perigee: 60.2227°
revolutions per day: 14.84787209
mean anomaly at epoch: 300.1092°
orbit number at epoch: 16318

The dashed part of the orbit path shows where the satellite is in the earth's shadow,  

DLR